Date,TemperatureHighF,TemperatureAvgF,TemperatureLowF,DewpointHighF,DewpointAvgF,DewpointLowF,HumidityHigh,HumidityAvg,HumidityLow,PressureMaxIn,PressureMinIn,WindSpeedMaxMPH,WindSpeedAvgMPH,GustSpeedMaxMPH,PrecipitationSumIn
2013-1-1,44.1,40.6,35.9,41.6,36.3,30.0,91,85,78,30.07,29.90,20,1,20,0.46
2013-1-2,43.5,38.5,36.5,40.5,35.4,33.0,90,89,87,30.11,29.89,9,1,9,0.07
2013-1-3,41.1,34.6,23.9,34.5,30.0,19.2,88,83,73,30.29,30.08,12,1,12,0.00
2013-1-4,39.8,27.3,18.0,29.2,20.9,13.7,86,77,60,30.39,30.29,15,2,15,0.00
2013-1-5,44.8,31.7,18.0,32.8,23.9,12.9,83,73,60,30.41,30.19,12,1,12,0.03
2013-1-6,41.9,38.4,35.9,36.1,32.8,29.7,86,80,75,30.22,30.06,15,3,15,0.04
2013-1-7,47.4,34.3,24.2,35.9,26.9,18.0,83,75,63,30.38,30.22,12,2,12,0.00
2013-1-8,54.5,32.9,19.9,38.1,24.4,14.7,84,72,50,30.40,30.25,9,0,9,0.00
2013-1-9,47.7,39.2,27.8,43.9,33.9,21.5,88,81,75,30.41,30.26,10,0,10,0.05
2013-1-10,65.5,52.0,40.2,58.8,47.3,36.6,92,84,71,30.41,30.11,14,1,14,0.00
2013-1-11,67.9,60.7,51.0,56.9,51.3,44.3,84,72,64,30.12,29.93,28,5,28,0.00
2013-1-12,71.1,58.7,47.7,63.1,53.9,43.7,89,84,75,30.07,29.92,9,0,9,0.00
2013-1-13,74.4,62.0,46.0,61.5,52.3,42.7,91,72,52,30.00,29.83,17,4,17,0.16
2013-1-14,60.7,49.8,40.2,54.5,46.3,37.5,91,88,79,30.19,29.91,16,2,16,1.78
2013-1-15,48.2,43.7,40.2,46.8,41.7,37.5,95,92,90,30.12,29.85,9,1,9,1.71
2013-1-16,55.6,49.2,45.8,54.8,48.2,44.4,97,96,95,29.98,29.79,20,2,20,0.68
2013-1-17,46.4,38.5,32.8,45.6,37.5,31.8,97,96,93,30.27,29.86,15,4,15,0.85
2013-1-18,36.5,29.9,24.1,34.9,28.6,22.4,96,95,93,30.51,30.26,0,0,0,0.34
2013-1-19,45.2,29.7,20.3,42.7,27.8,18.1,95,93,88,30.40,30.13,2,0,2,0.03
2013-1-20,50.8,34.5,23.0,43.8,30.8,21.0,95,87,70,30.16,30.05,16,3,16,0.00
2013-1-21,44.3,32.7,22.4,34.0,24.0,13.8,91,72,44,30.11,29.99,26,7,26,0.00
2013-1-22,29.7,25.3,19.4,14.2,8.9,5.1,63,50,36,30.28,30.09,21,8,21,0.00
2013-1-23,40.9,30.6,25.4,23.2,13.7,6.3,68,49,43,30.32,30.05,16,6,16,0.00
2013-1-24,42.8,31.6,20.6,32.4,15.9,4.9,70,53,38,30.40,29.99,22,8,22,0.00
2013-1-25,34.6,28.5,21.0,30.8,20.0,6.4,86,71,52,30.32,30.05,6,0,6,0.32
2013-1-26,42.8,34.4,24.5,33.4,28.9,18.9,88,80,67,30.33,30.11,14,4,14,0.08
2013-1-27,47.1,34.4,21.4,38.3,28.3,16.8,87,78,64,30.39,30.24,5,0,5,0.02
2013-1-28,60.2,47.1,34.9,49.1,40.4,30.6,87,78,64,30.31,30.12,10,1,10,0.00
2013-1-29,69.1,54.1,36.3,56.1,46.4,31.9,87,76,60,30.15,29.80,10,1,10,0.00
2013-1-30,69.3,59.6,43.2,58.4,51.7,37.5,88,76,64,29.80,29.37,37,8,37,1.50
2013-1-31,43.2,35.5,32.2,38.3,24.7,21.5,86,65,51,29.96,29.51,33,16,33,0.05
2013-2-1,43.8,25.4,17.3,30.1,13.8,7.0,81,61,47,30.37,29.84,43,10,43,0.00
2013-2-2,32.9,25.1,17.8,28.0,17.6,8.4,82,73,64,30.35,30.00,14,1,14,0.00
2013-2-3,39.6,33.7,26.9,33.6,27.7,18.6,87,79,66,30.10,29.90,23,8,23,0.16
2013-2-4,42.3,30.5,19.9,32.1,23.2,13.3,80,74,66,30.10,29.90,6,0,6,0.00
2013-2-5,52.2,39.1,29.1,42.9,32.5,22.7,82,77,65,29.95,29.86,14,2,14,0.00
2013-2-6,56.2,38.1,24.7,40.1,28.3,19.7,84,69,44,30.16,29.95,12,1,12,0.00
2013-2-7,58.0,44.1,30.9,42.9,34.5,23.3,79,70,54,30.12,29.86,12,2,12,0.01
2013-2-8,52.0,42.3,35.9,45.2,35.3,27.0,88,76,62,30.19,29.82,20,4,20,0.14
2013-2-9,49.6,34.7,22.7,32.2,24.5,16.6,79,67,46,30.31,30.17,12,1,12,0.00
2013-2-10,58.1,45.7,29.1,45.9,30.3,18.6,77,59,22,30.20,29.86,39,7,39,0.08
2013-2-11,60.1,54.0,44.8,50.0,43.7,32.6,82,68,58,30.03,29.83,23,7,23,0.00
2013-2-12,51.6,42.0,30.0,36.3,30.0,22.8,78,63,47,30.12,29.80,9,1,9,0.06
2013-2-13,49.1,43.1,37.6,43.3,37.3,32.0,83,80,73,29.89,29.56,25,7,25,0.12
2013-2-14,49.9,39.4,28.1,34.8,29.5,19.9,84,68,50,30.00,29.88,16,3,16,0.00
2013-2-15,55.0,37.7,25.3,40.1,28.9,19.1,81,71,47,30.05,29.89,23,4,23,0.08
2013-2-16,35.0,31.4,25.3,29.5,24.1,16.8,82,74,58,30.02,29.88,20,3,20,0.01
2013-2-17,37.3,27.1,18.0,16.9,11.1,4.7,70,51,35,30.24,30.02,29,9,29,0.00
2013-2-18,56.9,35.3,17.2,35.4,19.8,4.9,73,55,34,30.29,29.89,25,3,25,0.00
2013-2-19,49.6,44.2,33.5,40.6,27.6,14.9,84,54,33,30.06,29.79,31,12,31,0.08
2013-2-20,41.8,32.9,20.8,19.1,13.6,5.7,59,46,28,30.17,30.06,17,5,17,0.00
2013-2-21,50.8,34.4,17.7,33.5,17.9,6.7,73,53,30,30.23,29.97,13,3,13,0.22
2013-2-22,58.0,49.7,41.5,46.9,40.6,32.9,81,71,63,30.05,29.89,17,3,17,0.22
2013-2-23,55.7,46.9,39.2,50.2,41.9,34.6,87,83,78,29.93,29.75,12,1,12,0.07
2013-2-24,51.9,41.7,27.3,43.6,31.4,18.1,87,68,41,30.03,29.79,15,5,15,0.00
2013-2-25,56.3,38.8,25.3,39.8,28.0,17.2,78,66,49,30.02,29.79,16,1,16,0.00
2013-2-26,58.6,48.2,43.3,47.9,38.1,30.5,78,68,59,29.80,29.35,30,13,30,0.06
2013-2-27,47.3,41.6,38.8,36.6,32.7,31.2,79,71,60,29.76,29.56,22,12,22,0.04
2013-2-28,38.8,36.3,34.1,31.9,27.7,24.9,80,71,62,29.91,29.69,21,11,21,0.00
2013-3-1,38.5,35.5,33.4,32.6,29.6,26.0,83,79,71,29.91,29.85,12,6,12,0.01
2013-3-2,36.8,33.3,29.1,32.2,27.9,21.1,90,81,70,29.97,29.83,15,4,15,0.03
2013-3-3,31.5,28.8,26.0,21.5,19.1,17.5,76,67,57,30.05,29.95,14,4,14,0.00
2013-3-4,48.2,33.7,17.8,27.6,20.6,9.0,73,59,39,30.16,29.95,10,1,10,0.00
2013-3-5,50.4,39.9,29.4,47.0,34.1,21.1,89,80,65,29.97,29.51,37,6,37,1.27
2013-3-6,34.1,30.7,28.2,29.4,26.0,22.1,88,83,71,30.20,29.71,26,12,26,0.00
2013-3-7,36.5,33.2,30.3,29.8,27.7,26.3,85,80,75,30.29,30.17,4,0,4,0.00
2013-3-8,46.8,33.8,22.4,34.2,25.6,17.2,83,72,57,30.36,30.25,13,2,13,0.00
2013-3-9,65.2,40.2,22.4,42.4,28.6,16.6,81,66,34,30.29,30.09,9,0,9,0.00
2013-3-10,72.1,54.3,37.9,45.7,35.0,29.2,79,53,27,30.10,29.92,17,3,17,0.00
2013-3-11,61.0,57.8,52.5,48.9,44.5,32.3,83,63,34,29.93,29.67,27,9,27,0.68
2013-3-12,53.2,42.8,30.9,48.2,36.4,23.7,88,79,60,30.01,29.70,17,7,17,0.15
2013-3-13,42.1,34.8,27.9,33.0,24.1,16.0,82,66,47,30.23,29.98,26,7,26,0.00
2013-3-14,42.9,33.0,25.1,22.4,17.9,14.3,64,54,39,30.33,30.18,15,4,15,0.00
2013-3-15,64.3,46.2,28.4,41.3,30.9,16.9,70,56,39,30.19,29.80,20,4,20,0.00
2013-3-16,71.6,61.5,43.6,49.8,44.0,35.5,77,54,42,29.80,29.63,32,12,32,0.00
2013-3-17,70.3,58.7,48.6,53.9,48.3,41.0,79,69,53,29.88,29.72,14,2,14,0.00
2013-3-18,61.3,53.1,45.4,50.0,44.9,39.3,84,74,59,29.82,29.65,31,6,31,0.56
2013-3-19,55.1,46.5,33.8,47.3,32.3,14.6,88,61,27,30.05,29.71,26,7,26,0.14
2013-3-20,50.8,38.3,23.9,26.1,19.8,14.8,71,50,26,30.08,29.79,25,6,25,0.00
2013-3-21,36.8,29.1,21.4,24.2,12.6,7.7,66,50,35,29.98,29.84,20,7,20,0.00
2013-3-22,43.8,31.3,16.4,24.7,15.7,7.2,72,54,36,30.04,29.95,12,1,12,0.00
2013-3-23,51.3,43.0,37.6,39.7,32.7,24.7,75,67,55,29.97,29.70,10,1,10,0.00
2013-3-24,59.0,48.8,43.2,51.9,42.5,36.8,86,79,68,29.73,29.27,30,5,30,0.89
2013-3-25,42.5,34.5,30.9,36.8,28.3,26.1,85,78,68,29.92,29.45,33,18,33,1.16
2013-3-26,36.6,33.1,30.7,30.4,27.8,25.9,85,81,73,30.20,29.91,20,9,20,0.00
2013-3-27,42.3,34.4,25.4,29.0,26.1,16.6,87,72,56,30.27,30.18,18,4,18,0.00
2013-3-28,51.1,35.9,25.0,31.2,23.5,16.6,79,62,40,30.30,30.19,17,3,17,0.00
2013-3-29,51.7,36.7,21.9,35.8,27.1,14.6,81,69,40,30.29,30.17,17,3,17,0.03
2013-3-30,60.1,47.7,40.5,48.5,40.4,35.2,84,76,61,30.17,29.93,12,2,12,0.00
2013-3-31,59.5,52.9,45.7,52.9,47.7,39.2,88,83,73,29.94,29.75,21,5,21,0.41
2013-4-1,59.0,50.5,40.1,49.5,43.0,34.3,90,77,54,29.96,29.79,26,5,26,0.00
2013-4-2,51.3,41.4,28.4,34.7,26.9,21.3,79,58,34,30.14,29.96,16,3,16,0.00
2013-4-3,53.3,41.2,25.7,29.0,23.9,18.2,75,53,31,30.23,30.11,15,4,15,0.00
2013-4-4,43.9,40.1,37.8,34.8,30.9,21.5,85,71,43,30.14,29.91,14,3,14,0.94
2013-4-5,57.2,44.2,36.5,46.3,38.0,29.1,88,79,59,30.03,29.90,12,1,12,0.00
2013-4-6,68.9,45.9,29.5,49.2,35.9,24.6,85,70,38,30.15,29.97,10,1,10,0.00
2013-4-7,70.3,59.1,45.1,44.9,38.8,28.1,69,48,37,30.04,29.93,16,4,16,0.00
2013-4-8,76.8,57.7,40.6,57.6,45.0,34.5,83,65,42,30.03,29.89,15,2,15,0.00
2013-4-9,80.3,61.0,42.8,62.0,49.6,38.0,85,68,44,30.09,29.92,12,1,12,0.00
2013-4-10,81.2,64.2,47.4,63.5,53.2,42.8,86,69,48,30.00,29.78,16,1,16,0.00
2013-4-11,79.8,66.7,52.0,62.7,53.4,46.9,85,65,39,29.82,29.52,25,4,25,0.43
2013-4-12,64.3,57.8,44.1,57.6,49.1,35.4,87,74,53,29.85,29.44,21,7,21,0.38
2013-4-13,66.3,51.2,35.5,45.0,37.0,29.6,82,61,37,29.97,29.85,22,4,22,0.00
2013-4-14,73.2,56.1,35.8,53.7,39.2,30.3,83,57,28,29.99,29.83,24,4,24,0.01
2013-4-15,74.9,62.0,49.5,59.2,51.6,43.0,83,69,54,30.01,29.83,12,1,12,0.01
2013-4-16,80.5,63.9,45.7,62.5,52.6,40.8,86,69,46,30.13,30.00,15,1,15,0.00
2013-4-17,69.1,62.4,56.2,63.0,57.3,50.5,89,83,74,30.20,29.97,17,4,17,0.49
2013-4-18,77.7,67.7,54.2,66.8,56.2,50.7,90,69,44,29.97,29.70,24,5,24,0.00
2013-4-19,72.7,61.4,46.5,60.4,51.3,36.5,89,70,58,29.94,29.54,25,11,25,0.52
2013-4-20,57.2,45.8,33.5,37.7,32.7,26.7,78,61,40,30.23,29.94,14,4,14,0.00
2013-4-21,63.9,48.7,33.2,44.2,34.4,26.4,81,60,37,30.33,30.18,13,3,13,0.00
2013-4-22,66.1,51.1,35.5,46.1,37.4,28.6,79,61,41,30.28,30.06,15,3,15,0.00
2013-4-23,71.6,53.5,34.9,50.0,40.8,28.8,81,64,42,30.15,29.94,12,0,12,0.00
2013-4-24,74.2,56.0,41.2,58.1,47.5,36.1,86,75,47,30.10,29.85,33,5,33,0.21
2013-4-25,61.6,49.6,38.9,45.6,39.1,29.2,86,69,39,30.28,30.10,17,2,17,0.22
2013-4-26,67.6,51.0,32.1,46.5,37.2,25.8,81,61,41,30.36,30.20,12,2,12,0.00
2013-4-27,58.7,55.3,51.9,53.9,48.7,41.8,85,79,63,30.25,30.02,12,1,12,0.14
2013-4-28,62.3,57.0,52.2,55.0,50.5,46.2,88,79,66,30.07,29.79,25,4,25,0.04
2013-4-29,71.5,59.3,48.8,59.0,52.0,45.1,89,78,61,29.93,29.83,13,1,13,0.05
2013-4-30,77.7,61.5,46.1,62.2,51.9,41.8,88,72,51,29.99,29.87,12,1,12,0.46
2013-5-1,72.5,61.4,47.4,57.9,50.5,42.5,86,69,52,30.12,29.99,18,6,18,0.00
2013-5-2,73.9,62.3,51.3,58.8,51.7,45.0,82,69,56,30.11,30.04,15,4,15,0.00
2013-5-3,68.9,59.5,45.8,56.1,48.1,40.0,84,67,51,30.07,29.92,26,10,26,0.00
2013-5-4,61.8,57.5,52.8,49.0,44.7,35.2,78,63,51,29.92,29.83,28,14,28,0.03
2013-5-5,59.5,55.5,53.1,51.5,48.4,46.3,85,77,70,29.85,29.69,31,12,31,0.48
2013-5-6,70.9,57.5,49.2,58.3,49.9,44.1,90,77,47,29.81,29.64,20,3,20,0.36
2013-5-7,66.0,54.8,45.1,54.8,47.9,39.9,85,78,66,29.86,29.78,13,2,13,0.13
2013-5-8,66.6,59.4,53.6,59.7,54.2,49.8,88,83,71,29.95,29.82,16,4,16,0.03
2013-5-9,75.8,61.3,46.5,63.3,53.4,42.5,89,76,57,30.02,29.93,15,2,15,0.00
2013-5-10,76.7,61.8,48.3,65.8,55.0,43.7,87,79,61,29.99,29.83,15,2,15,0.18
2013-5-11,68.3,62.8,58.1,63.2,58.3,52.3,89,85,81,29.85,29.73,14,2,14,0.19
2013-5-12,60.7,53.9,39.5,52.3,43.6,29.8,86,70,44,30.04,29.84,21,4,21,0.00
2013-5-13,61.8,48.1,35.0,41.8,33.5,27.9,81,59,35,30.15,30.03,20,4,20,0.00
2013-5-14,75.1,55.0,34.0,54.6,41.9,26.6,80,63,46,30.17,29.92,16,3,16,0.00
2013-5-15,81.1,65.1,50.2,60.4,52.4,43.3,84,65,45,30.02,29.85,20,4,20,0.00
2013-5-16,74.9,63.5,50.2,61.4,53.7,44.6,84,71,58,29.95,29.87,14,2,14,0.00
2013-5-17,81.8,64.6,51.7,67.4,56.9,46.4,86,77,54,30.01,29.89,26,0,26,0.06
2013-5-18,73.9,65.2,56.6,67.1,60.7,52.6,90,85,77,29.99,29.89,4,0,4,0.11
2013-5-19,79.9,68.6,61.8,71.6,63.4,57.9,90,84,69,29.96,29.85,18,1,18,0.27
2013-5-20,81.6,69.0,58.6,69.8,62.6,54.8,90,81,65,30.01,29.87,12,1,12,0.00
2013-5-21,86.5,70.5,58.0,71.8,62.6,53.2,88,77,54,29.95,29.77,40,2,40,0.16
2013-5-22,81.8,67.0,56.3,72.1,61.5,52.5,89,83,69,29.86,29.74,26,1,26,0.68
2013-5-23,76.8,66.6,60.9,66.1,60.5,54.7,91,81,60,29.88,29.73,23,3,23,0.55
2013-5-24,67.1,59.1,45.5,55.2,48.9,37.0,86,70,47,30.19,29.87,17,2,17,0.01
2013-5-25,70.1,55.3,38.3,50.9,43.0,32.4,83,65,43,30.28,30.08,7,1,7,0.00
2013-5-26,73.5,61.9,53.2,53.4,49.0,43.8,79,64,43,30.20,30.08,12,1,12,0.00
2013-5-27,82.2,66.1,48.3,64.3,54.6,42.6,84,68,50,30.13,29.96,12,1,12,0.00
2013-5-28,84.7,70.6,55.4,67.5,59.4,49.3,84,69,49,30.06,29.95,15,2,15,0.00
2013-5-29,86.3,73.6,55.4,66.3,58.9,48.2,81,61,46,30.09,29.96,10,1,10,0.00
2013-5-30,87.0,74.0,56.0,67.7,58.8,49.6,82,61,35,30.11,29.97,15,2,15,0.00
2013-5-31,86.7,76.4,60.9,66.4,58.5,52.8,78,56,38,30.05,29.92,20,3,20,0.00
2013-6-1,87.8,77.7,61.8,67.5,59.8,53.3,78,55,38,29.94,29.81,18,4,18,0.03
2013-6-2,74.4,70.3,65.8,68.2,63.7,59.5,87,80,63,29.89,29.77,16,1,16,0.66
2013-6-3,78.5,69.6,63.2,67.0,62.7,56.1,90,80,60,29.89,29.77,14,2,14,0.00
2013-6-4,81.6,69.3,55.9,66.5,59.7,51.5,88,73,53,29.94,29.87,10,1,10,0.00
2013-6-5,84.7,71.4,59.0,69.8,62.4,54.0,85,74,49,29.94,29.79,22,1,22,0.69
2013-6-6,79.4,70.9,64.0,70.8,64.8,60.0,89,81,69,29.83,29.64,10,1,10,0.97
2013-6-7,78.8,70.1,64.0,71.0,65.0,59.7,88,84,75,29.75,29.58,12,1,12,0.49
2013-6-8,78.8,69.2,61.3,67.3,62.4,56.4,90,80,63,29.97,29.74,13,1,13,0.25
2013-6-9,84.3,70.2,59.2,70.3,62.7,54.6,88,78,60,30.02,29.86,13,1,13,0.43
2013-6-10,78.3,71.6,66.6,69.9,64.4,58.0,89,79,59,29.88,29.75,20,4,20,0.20
2013-6-11,82.0,72.1,63.1,66.7,62.9,57.7,89,74,56,29.92,29.80,14,3,14,0.45
2013-6-12,87.8,76.0,62.7,75.6,67.1,57.6,86,75,62,29.92,29.77,15,4,15,0.00
2013-6-13,82.2,74.6,67.8,71.5,66.7,62.1,85,77,66,29.78,29.58,31,6,31,0.46
2013-6-14,77.4,67.1,55.6,64.5,57.8,51.7,89,74,50,29.96,29.76,12,1,12,0.00
2013-6-15,81.6,68.0,52.6,64.8,57.2,47.6,86,70,49,30.04,29.92,12,1,12,0.00
2013-6-16,83.4,72.0,59.0,68.3,61.8,53.2,85,71,53,30.01,29.88,18,2,18,0.00
2013-6-17,79.4,72.0,67.3,71.2,66.4,62.3,88,83,73,29.94,29.81,18,1,18,0.24
2013-6-18,71.6,69.1,64.2,67.9,65.1,59.9,90,87,83,29.86,29.73,14,1,14,0.45
2013-6-19,81.2,69.5,60.5,69.9,62.6,57.1,92,80,57,29.99,29.84,9,1,9,0.01
2013-6-20,81.6,70.4,58.7,70.0,62.9,54.2,87,77,65,30.08,29.98,12,0,12,0.00
2013-6-21,83.2,72.0,61.2,70.2,63.8,57.0,88,76,57,30.12,30.02,7,0,7,0.00
2013-6-22,83.6,71.3,59.8,68.4,60.2,55.4,88,70,41,30.13,29.97,9,1,9,0.00
2013-6-23,84.9,71.9,58.3,69.4,61.9,53.5,86,72,52,30.10,29.98,10,1,10,0.00
2013-6-24,85.5,74.7,63.4,71.9,65.7,59.1,87,75,55,30.10,29.95,13,1,13,0.00
2013-6-25,82.6,74.0,66.6,71.7,66.5,61.5,85,78,65,30.03,29.90,17,2,17,0.00
2013-6-26,82.8,73.1,63.9,73.3,66.9,60.0,88,81,69,29.93,29.77,15,2,15,0.03
2013-6-27,79.9,71.6,65.6,74.9,66.8,61.0,88,85,73,29.79,29.66,23,3,23,0.27
2013-6-28,82.8,73.6,65.3,73.3,67.6,60.7,90,82,68,29.71,29.54,23,4,23,0.00
2013-6-29,82.2,71.7,61.8,68.7,61.6,55.7,89,72,47,29.60,29.53,16,4,16,0.00
2013-6-30,69.3,67.2,63.7,62.7,60.6,56.2,83,79,76,29.67,29.59,6,1,6,0.06
2013-7-1,82.2,71.7,66.6,71.4,65.2,61.6,89,80,60,29.81,29.65,12,0,12,0.46
2013-7-2,85.1,72.8,65.5,71.6,65.9,61.5,90,80,56,29.96,29.77,23,1,23,0.03
2013-7-3,73.3,68.5,64.3,69.8,64.6,61.3,91,87,83,30.10,29.93,9,1,9,1.40
2013-7-4,80.5,70.2,64.2,73.7,66.3,61.6,92,88,76,30.10,29.99,18,0,18,0.12
2013-7-5,83.8,76.6,69.8,70.8,66.8,62.9,86,72,58,30.07,29.99,16,2,16,0.00
2013-7-6,86.1,74.7,67.6,70.1,66.1,62.6,86,75,55,30.05,29.93,20,2,20,0.12
2013-7-7,75.4,71.0,67.6,70.9,66.7,63.5,88,86,81,30.05,29.95,12,1,12,0.21
2013-7-8,85.5,74.2,67.9,73.0,68.1,61.9,91,82,59,30.09,29.98,7,1,7,0.00
2013-7-9,87.8,75.7,63.1,73.6,67.1,58.9,88,76,56,30.05,29.92,8,1,8,0.00
2013-7-10,85.9,75.2,67.6,75.8,68.7,63.3,88,80,64,29.97,29.80,22,1,22,0.31
2013-7-11,81.1,74.2,70.6,72.2,68.7,65.8,88,83,73,29.86,29.75,6,1,6,0.00
2013-7-12,81.6,72.7,64.5,71.1,65.4,60.5,89,79,60,29.87,29.78,13,1,13,0.00
2013-7-13,82.6,72.9,61.3,68.3,63.1,56.0,86,72,59,29.97,29.85,15,4,15,0.00
2013-7-14,82.2,75.3,68.3,72.7,67.0,61.5,86,76,65,30.14,29.95,20,3,20,0.26
2013-7-15,87.4,74.3,62.6,72.6,65.2,58.5,88,74,53,30.19,30.10,9,1,9,0.00
2013-7-16,91.0,76.1,62.4,73.0,65.6,57.8,88,72,48,30.23,30.11,9,1,9,0.00
2013-7-17,85.9,74.6,66.1,75.2,68.0,61.4,87,80,67,30.18,30.05,12,1,12,0.10
2013-7-18,87.6,74.1,67.9,78.1,69.0,64.5,90,84,69,30.11,29.94,12,1,12,0.05
2013-7-19,87.4,76.6,68.1,75.8,69.9,64.5,91,81,64,30.00,29.83,17,1,17,0.01
2013-7-20,84.9,74.5,68.6,76.4,68.6,64.1,88,82,70,29.92,29.79,12,1,12,0.04
2013-7-21,81.2,72.3,68.6,74.1,67.7,64.9,89,86,76,29.91,29.82,18,1,18,0.09
2013-7-22,82.8,73.0,65.3,73.5,67.8,62.3,91,84,71,29.87,29.69,18,2,18,0.88
2013-7-23,81.6,73.1,68.1,72.9,68.2,63.9,93,85,73,29.81,29.68,21,4,21,0.06
2013-7-24,82.0,74.6,67.6,73.4,68.6,63.9,90,82,70,29.77,29.67,15,1,15,0.12
2013-7-25,83.0,72.4,62.7,70.2,64.0,56.5,88,76,54,29.94,29.76,9,1,9,0.00
2013-7-26,86.7,71.6,57.3,71.0,63.0,52.7,87,75,56,29.96,29.84,22,1,22,1.14
2013-7-27,79.4,71.9,67.6,72.2,67.0,63.3,90,85,77,29.89,29.77,13,0,13,0.23
2013-7-28,80.1,71.4,62.6,69.8,64.3,55.4,90,79,60,29.95,29.78,14,2,14,0.44
2013-7-29,80.5,66.7,56.2,64.7,57.4,50.9,88,73,49,30.11,29.94,9,1,9,0.00
2013-7-30,78.3,66.8,54.8,66.8,59.2,50.0,87,77,60,30.14,30.03,7,0,7,0.00
2013-7-31,75.8,69.0,64.3,70.3,64.8,60.0,90,86,82,30.06,29.85,10,1,10,0.27
2013-8-1,82.6,73.5,65.2,73.4,67.6,58.9,91,82,66,29.87,29.79,12,0,12,0.00
2013-8-2,83.4,71.8,63.1,69.6,63.4,58.1,88,76,54,29.93,29.85,8,1,8,0.00
2013-8-3,81.4,71.9,62.6,70.4,64.3,57.3,87,77,63,29.93,29.86,13,3,13,0.00
2013-8-4,82.8,75.4,67.3,70.1,65.6,58.3,87,73,51,29.95,29.85,13,2,13,0.00
2013-8-5,83.2,71.6,59.9,70.3,62.9,55.1,88,75,55,29.97,29.85,13,2,13,0.00
2013-8-6,84.3,73.8,63.9,70.4,65.3,59.0,86,75,60,29.91,29.83,9,1,9,0.00
2013-8-7,78.5,73.5,69.3,72.8,68.5,64.7,88,85,79,29.92,29.84,10,0,10,0.66
2013-8-8,81.4,74.6,67.3,74.3,69.5,63.9,90,84,76,29.91,29.85,4,0,4,0.00
2013-8-9,87.0,76.5,68.4,75.3,69.6,64.9,90,80,64,29.94,29.85,12,2,12,0.00
2013-8-10,85.9,75.3,69.6,75.6,69.3,64.9,88,82,67,30.00,29.91,16,2,16,0.03
2013-8-11,85.1,74.3,69.3,74.6,68.9,64.9,90,84,69,30.04,29.91,12,2,12,0.04
2013-8-12,83.8,74.8,68.4,75.4,69.3,64.4,90,83,73,29.99,29.85,13,1,13,0.00
2013-8-13,80.3,72.7,68.8,72.5,67.8,64.3,89,85,74,29.86,29.76,20,3,20,0.34
2013-8-14,75.3,67.8,58.1,65.1,59.4,50.2,89,75,54,29.99,29.81,13,3,13,0.00
2013-8-15,78.1,66.4,55.7,65.3,57.8,51.1,86,75,56,30.01,29.91,12,1,12,0.00
2013-8-16,80.5,68.0,58.0,65.8,58.9,53.2,86,74,52,30.01,29.92,13,2,13,0.00
2013-8-17,76.0,67.0,56.9,63.8,59.7,52.4,86,78,65,30.05,29.98,12,1,12,0.14
2013-8-18,78.5,69.4,65.2,70.9,64.3,61.3,89,84,72,30.08,29.98,10,0,10,0.16
2013-8-19,81.1,71.5,66.4,70.4,66.1,62.8,90,83,69,30.06,29.93,5,0,5,0.21
2013-8-20,84.1,74.3,66.1,72.0,67.2,62.1,89,79,62,30.06,29.96,7,1,7,0.00
2013-8-21,80.9,72.7,66.1,72.9,66.9,61.7,89,83,73,30.10,30.00,9,0,9,0.00
2013-8-22,84.5,74.4,66.0,72.2,67.2,61.6,90,79,62,30.06,29.91,7,1,7,0.00
2013-8-23,80.3,70.0,63.2,72.7,65.1,58.9,89,85,76,29.99,29.91,10,1,10,0.04
2013-8-24,83.0,71.0,61.3,71.0,63.2,54.2,92,78,52,30.16,29.99,13,3,13,0.00
2013-8-25,82.0,66.9,53.5,64.4,55.5,49.2,88,69,41,30.28,30.15,12,1,12,0.00
2013-8-26,81.8,66.8,53.6,67.5,58.4,48.9,87,75,58,30.23,30.03,12,2,12,0.00
2013-8-27,80.7,70.0,60.5,71.0,63.5,55.3,87,80,70,30.06,29.92,12,1,12,0.00
2013-8-28,84.7,74.8,67.3,74.1,67.7,62.8,88,79,64,29.95,29.84,14,3,14,0.00
2013-8-29,86.5,78.5,70.8,74.4,70.4,65.4,83,77,66,29.88,29.78,12,2,12,0.00
2013-8-30,88.4,75.9,65.5,75.0,66.9,61.9,90,75,51,29.90,29.77,13,2,13,0.00
2013-8-31,86.7,74.0,66.4,75.9,67.5,62.4,88,81,63,29.86,29.71,16,1,16,0.26
2013-9-1,84.5,74.2,67.6,75.8,68.0,63.3,89,81,64,29.81,29.68,20,2,20,0.21
2013-9-2,82.0,73.2,64.0,72.2,66.9,60.0,88,81,71,29.82,29.72,14,2,14,0.00
2013-9-3,81.6,71.8,64.8,70.4,65.1,58.5,89,80,63,29.91,29.71,20,1,20,0.12
2013-9-4,83.4,68.7,58.9,68.7,60.7,54.8,90,77,55,30.02,29.91,9,1,9,0.00
2013-9-5,80.7,66.8,55.6,67.1,57.5,51.8,89,74,45,30.08,30.00,10,1,10,0.00
2013-9-6,83.0,67.7,53.6,67.6,57.4,49.1,88,71,46,30.09,29.96,14,2,14,0.00
2013-9-7,82.0,67.6,54.1,68.1,58.8,49.7,88,74,56,30.03,29.89,15,2,15,0.00
2013-9-8,82.2,70.4,61.3,71.2,63.4,55.6,88,79,64,29.91,29.84,10,1,10,0.00
2013-9-9,89.0,72.7,60.5,73.6,63.3,56.6,90,74,47,30.00,29.90,12,1,12,0.00
2013-9-10,88.2,73.3,60.7,72.3,64.5,56.7,88,75,52,30.12,29.99,20,1,20,0.00
2013-9-11,86.5,75.3,68.6,73.7,68.4,62.8,90,80,62,30.12,29.96,7,0,7,0.09
2013-9-12,81.1,71.4,65.2,72.6,65.8,60.9,89,83,73,29.98,29.77,18,2,18,1.02
2013-9-13,76.0,67.7,55.6,66.1,59.7,48.2,90,77,50,29.89,29.75,12,2,12,3.79
2013-9-14,74.9,60.5,48.9,58.5,51.0,43.6,84,72,50,30.00,29.88,12,1,12,0.00
2013-9-15,79.2,63.7,48.5,64.4,54.7,44.0,87,74,53,30.09,29.98,10,0,10,0.00
2013-9-16,78.3,65.4,54.8,67.2,58.3,50.1,88,78,64,30.07,30.01,12,1,12,0.00
2013-9-17,77.2,66.3,57.2,64.9,58.1,50.7,86,75,60,30.12,30.04,10,1,10,0.00
2013-9-18,68.1,61.4,54.4,61.1,56.3,50.3,88,83,76,30.13,30.05,5,0,5,0.00
2013-9-19,77.7,68.1,62.1,67.9,62.8,57.2,90,83,70,30.08,29.95,9,1,9,0.00
2013-9-20,82.2,68.6,58.3,69.6,61.1,54.8,90,78,58,29.99,29.78,12,1,12,0.00
2013-9-21,72.8,64.7,60.5,65.2,60.0,55.6,89,85,75,29.78,29.61,17,1,17,0.76
2013-9-22,72.8,61.7,52.8,61.3,55.9,47.1,92,82,62,29.86,29.69,9,1,9,0.03
2013-9-23,77.4,60.5,46.8,64.7,52.9,43.1,89,77,58,29.94,29.84,13,1,13,0.00
2013-9-24,79.4,63.6,50.5,64.2,55.3,46.2,88,75,56,29.98,29.78,9,1,9,0.00
2013-9-25,67.8,64.3,61.5,63.9,60.2,56.0,92,87,81,29.80,29.72,10,1,10,0.18
2013-9-26,75.3,65.8,55.4,64.9,59.8,49.6,91,82,63,29.95,29.77,10,1,10,0.01
2013-9-27,77.0,61.7,50.2,63.7,53.6,46.7,89,76,53,30.06,29.94,9,1,9,0.00
2013-9-28,75.4,60.0,47.9,62.3,52.0,43.3,87,76,57,30.14,30.01,12,1,12,0.00
2013-9-29,70.8,59.4,48.0,61.6,53.1,43.4,87,80,69,30.06,29.92,12,1,12,0.00
2013-9-30,74.2,64.4,54.4,63.3,57.6,50.3,89,79,63,29.99,29.87,12,1,12,0.00
2013-10-1,76.3,62.9,52.5,64.5,55.7,48.5,89,78,60,30.06,29.95,12,1,12,0.00
2013-10-2,79.9,62.6,50.1,67.6,55.5,46.4,89,78,58,30.10,29.97,7,0,7,0.00
2013-10-3,80.7,65.0,54.1,67.7,57.4,48.7,88,77,58,30.06,29.94,10,1,10,0.00
2013-10-4,82.6,67.5,57.3,68.0,59.0,52.5,88,75,57,30.08,29.97,8,0,8,0.00
2013-10-5,85.3,67.3,54.2,69.8,58.6,49.7,89,75,52,30.08,29.89,10,0,10,0.00
2013-10-6,82.8,70.4,56.9,67.0,59.2,53.0,89,69,49,29.91,29.68,22,5,22,0.00
2013-10-7,74.0,60.1,49.1,60.9,53.4,43.6,87,79,63,30.01,29.67,16,2,16,0.31
2013-10-8,71.1,54.4,41.8,57.0,45.9,37.6,88,74,50,30.09,30.00,16,3,16,0.01
2013-10-9,73.7,56.2,42.8,57.6,47.1,37.9,87,73,52,30.14,30.02,10,0,10,0.00
2013-10-10,72.1,55.6,41.2,57.7,47.1,37.0,88,74,54,30.09,29.96,10,1,10,0.00
2013-10-11,75.8,60.3,45.1,60.5,51.5,40.6,87,74,54,30.01,29.87,7,0,7,0.00
2013-10-12,72.5,64.4,56.3,62.2,57.5,50.9,86,78,67,30.00,29.88,12,1,12,0.00
2013-10-13,72.3,65.1,60.1,64.6,60.0,56.2,89,83,74,30.11,30.00,12,0,12,0.09
2013-10-14,75.3,64.1,55.6,66.3,58.7,50.2,92,83,65,30.15,29.98,13,2,13,0.00
2013-10-15,75.6,61.6,50.1,64.2,55.1,46.4,90,80,65,30.07,29.91,2,0,2,0.00
2013-10-16,70.8,61.6,51.7,61.7,55.8,48.0,89,82,72,29.96,29.85,5,0,5,0.00
2013-10-17,68.6,62.5,54.2,64.4,58.1,49.1,89,85,81,29.91,29.72,18,2,18,0.01
2013-10-18,65.2,55.5,49.6,53.8,48.5,42.1,89,78,61,29.98,29.86,12,1,12,0.00
2013-10-19,61.6,54.3,48.5,54.1,47.4,43.4,88,78,61,29.92,29.78,21,3,21,0.00
2013-10-20,63.7,49.4,38.3,46.0,39.3,29.5,84,69,46,30.02,29.92,8,1,8,0.00
2013-10-21,68.9,49.4,33.7,53.5,39.3,28.5,85,70,47,30.07,29.90,14,1,14,0.00
2013-10-22,66.0,55.1,46.2,53.4,46.5,38.7,85,73,57,29.92,29.74,12,2,12,0.00
2013-10-23,54.1,47.2,33.4,48.2,38.8,25.3,84,73,61,30.02,29.67,26,7,26,0.00
2013-10-24,51.7,41.4,31.0,38.5,32.6,24.3,81,71,57,30.16,30.02,20,3,20,0.00
2013-10-25,46.5,37.7,26.1,33.4,27.1,18.6,74,66,53,30.37,30.15,12,2,12,0.00
2013-10-26,57.0,39.1,20.6,35.3,26.0,14.7,81,62,35,30.32,30.01,18,2,18,0.00
2013-10-27,64.8,56.0,48.2,47.9,41.2,33.8,70,58,50,30.05,29.95,15,2,15,0.00
2013-10-28,65.6,58.1,51.9,56.7,50.4,45.0,85,76,66,30.17,30.01,12,1,12,0.09
2013-10-29,70.1,59.7,50.8,57.0,50.3,45.4,86,72,48,30.25,30.11,15,2,15,0.00
2013-10-30,74.9,61.2,51.0,59.4,51.6,43.8,84,72,51,30.18,30.02,20,2,20,0.00
2013-10-31,72.1,62.0,49.6,58.7,51.7,43.5,86,70,55,30.05,29.51,22,6,22,0.00
2013-11-1,72.1,64.0,47.1,58.7,51.7,37.6,83,65,44,29.70,29.50,24,7,24,0.28
2013-11-2,61.2,49.2,41.1,47.5,38.7,31.7,83,68,44,29.98,29.69,18,2,18,0.00
2013-11-3,54.4,42.1,32.1,41.8,32.7,25.3,82,70,53,30.27,29.97,14,1,14,0.00
2013-11-4,62.6,43.3,27.8,44.8,32.2,22.4,84,67,41,30.39,30.26,6,0,6,0.00
2013-11-5,65.2,46.9,34.0,45.0,34.8,25.5,81,65,37,30.42,30.25,5,0,5,0.00
2013-11-6,73.0,57.1,34.3,58.3,45.1,26.5,84,66,47,30.28,29.94,20,3,20,0.00
2013-11-7,60.2,49.6,30.9,53.1,42.0,24.5,88,75,61,30.20,29.88,15,4,15,0.14
2013-11-8,51.6,37.7,26.4,35.6,28.0,20.8,83,70,44,30.32,30.20,12,1,12,0.00
2013-11-9,56.3,37.5,23.6,39.6,25.8,17.4,81,64,41,30.28,30.16,10,1,10,0.00
2013-11-10,62.1,42.5,28.4,42.8,29.7,20.5,80,62,39,30.26,30.13,18,3,18,0.00
2013-11-11,62.9,38.9,22.1,40.0,23.9,15.1,79,58,25,30.29,30.09,12,1,12,0.00
2013-11-12,48.3,36.2,21.4,39.0,27.2,12.5,81,70,61,30.52,30.02,18,4,18,0.00
2013-11-13,39.3,26.2,16.7,25.7,16.9,10.0,78,68,55,30.61,30.44,14,1,14,0.00
2013-11-14,56.3,30.5,15.4,33.9,18.3,8.8,79,62,35,30.47,30.24,7,0,7,0.00
2013-11-15,50.1,36.6,21.3,41.3,29.2,11.0,85,74,63,30.28,30.10,9,0,9,0.08
2013-11-16,68.8,51.2,39.8,59.1,45.4,36.2,90,81,66,30.14,29.99,9,0,9,0.02
2013-11-17,69.6,61.1,47.0,60.3,53.3,41.8,85,76,65,30.00,29.69,18,3,18,0.05
2013-11-18,66.3,54.4,33.5,58.9,42.2,23.0,86,65,36,30.06,29.67,21,4,21,0.01
2013-11-19,48.6,36.8,24.8,32.8,25.6,17.4,79,64,46,30.18,30.06,13,2,13,0.00
2013-11-20,56.3,40.0,26.1,37.4,27.2,19.4,78,61,40,30.27,30.11,18,1,18,0.00
2013-11-21,67.6,49.0,28.8,52.4,39.1,20.7,80,69,56,30.34,30.18,23,4,23,0.00
2013-11-22,59.6,53.6,44.8,53.1,48.6,40.0,90,83,78,30.21,30.07,7,1,7,0.29
2013-11-23,55.7,45.0,29.1,52.8,40.0,22.1,90,83,70,30.29,30.06,17,3,17,0.13
2013-11-24,32.5,25.6,18.1,23.1,14.6,9.3,73,63,48,30.53,30.29,13,2,13,0.00
2013-11-25,37.8,29.2,17.5,27.4,19.1,9.1,73,66,58,30.45,30.13,5,0,5,0.00
2013-11-26,46.2,41.6,35.5,43.1,37.2,27.4,90,84,72,30.13,29.63,13,1,13,1.77
2013-11-27,41.5,30.7,25.3,38.8,26.9,19.8,90,86,77,30.24,29.65,16,2,16,0.24
2013-11-28,36.9,25.4,14.8,29.1,19.8,10.1,85,79,71,30.46,30.23,4,0,4,0.07
2013-11-29,46.1,28.7,17.0,35.2,22.0,12.2,85,76,61,30.57,30.44,9,0,9,0.00
2013-11-30,53.1,31.5,19.9,40.1,23.7,14.4,82,73,58,30.50,30.25,0,0,0,0.00
2013-12-1,53.5,33.5,20.5,40.1,24.6,14.4,81,70,54,30.26,29.94,7,0,7,0.00
2013-12-2,51.4,43.2,34.1,43.8,36.6,27.3,83,78,71,29.94,29.74,7,0,7,0.00
2013-12-3,61.6,48.8,40.6,52.6,42.6,35.2,86,79,70,29.81,29.72,7,0,7,0.00
2013-12-4,71.5,53.1,40.8,58.6,45.0,36.6,88,75,54,29.91,29.77,17,1,17,0.00
2013-12-5,73.5,57.1,42.8,63.4,50.6,36.4,86,79,62,29.97,29.81,12,1,12,0.05
2013-12-6,61.3,55.2,44.9,58.7,52.1,42.4,92,89,85,30.05,29.72,33,2,33,0.93
2013-12-7,44.9,38.9,35.6,42.4,35.9,31.8,91,89,84,30.34,30.02,14,6,14,0.05
2013-12-8,54.4,44.1,36.2,49.3,40.2,32.3,90,86,80,30.27,29.97,14,1,14,0.33
2013-12-9,49.5,46.5,42.1,47.0,43.8,39.4,92,90,88,30.06,29.92,6,1,6,0.38
2013-12-10,44.5,36.4,22.7,42.3,32.9,18.9,95,87,77,30.33,29.86,21,5,21,0.46
2013-12-11,47.0,28.9,17.2,35.8,23.2,13.5,88,79,60,30.42,30.26,8,0,8,0.00
2013-12-12,35.5,26.2,19.1,24.7,19.0,11.6,82,74,59,30.46,30.33,15,2,15,0.01
2013-12-13,47.7,30.5,16.7,33.3,21.4,9.8,80,69,54,30.37,30.07,12,0,12,0.00
2013-12-14,49.6,43.8,35.8,45.4,36.6,27.4,86,76,62,30.10,29.67,20,2,20,0.04
2013-12-15,49.1,36.8,31.2,45.1,32.0,26.0,88,83,78,30.11,29.67,18,9,18,0.04
2013-12-16,49.9,35.2,27.6,37.2,28.0,20.1,84,75,58,30.17,30.01,14,3,14,0.00
2013-12-17,54.5,40.0,24.5,39.8,28.3,18.3,82,64,48,30.11,29.88,23,7,23,0.00
2013-12-18,43.6,31.0,20.8,24.0,16.6,11.1,71,56,39,30.27,30.11,15,3,15,0.00
2013-12-19,53.5,33.8,19.2,36.2,22.2,10.7,75,63,45,30.29,30.08,5,0,5,0.00
2013-12-20,65.2,41.7,26.3,47.8,31.4,19.1,80,68,45,30.15,29.97,10,1,10,0.00
2013-12-21,73.2,60.3,39.5,59.6,49.7,32.7,84,69,58,29.98,29.70,29,7,29,0.00
2013-12-22,73.9,60.3,53.9,59.9,53.3,50.0,89,79,55,29.96,29.68,29,4,29,1.79
2013-12-23,55.6,45.9,35.6,52.4,42.4,31.2,92,88,84,30.24,29.90,13,3,13,0.24
2013-12-24,35.6,29.8,19.7,31.2,23.3,13.6,84,76,66,30.42,30.22,17,4,17,0.00
2013-12-25,19.9,19.1,18.0,13.9,13.1,12.0,77,77,77,30.40,30.36,0,0,0,0.00
2013-12-27,48.8,33.5,21.1,32.8,20.8,12.4,70,60,49,30.40,30.33,9,1,9,0.00
2013-12-28,44.5,32.2,17.7,34.8,24.5,10.5,81,73,67,30.38,29.94,6,0,6,0.29
2013-12-29,47.4,44.5,39.8,43.1,40.5,34.1,90,86,80,29.97,29.69,22,6,22,0.29
2013-12-30,42.8,38.4,35.3,38.9,34.9,31.8,88,87,86,30.15,29.92,9,2,9,0.00
2013-12-31,38.9,32.1,22.4,31.8,26.4,16.9,88,79,64,30.35,30.12,18,4,18,0.00
2014-1-1,48.0,28.6,17.8,37.9,22.3,13.0,84,77,67,30.32,30.04,5,0,5,0.00
2014-1-2,38.6,31.3,20.2,35.3,26.5,13.0,88,82,73,30.04,29.65,30,6,30,0.20